Terminal Aerodrome Forecast
Issued by NWS Columbia, SC

Home | Current Version | Previous Version | Text Only | Print | Product List | Glossary On
Versions: 1 2 3 4 5 6 7 8 9 10 11 12 13 14 15 16 17 18 19 20 21 22 23 24 25 26 27 28 29 30 31 32 33 34 35 36 37 38 39 40 41 42 43 44 45 46 47 48 49 50
946
FTUS42 KCAE 232339
TAFAGS
TAF
KAGS 232339Z 2400/2424 VRB04KT 5SM -RA BR SCT007 BKN020 OVC050
      TEMPO 2400/2403 2SM RA BR BKN007 OVC015
     FM240300 VRB05KT 4SM BR BKN006 OVC010
     FM241500 20012G22KT 6SM -RA BR OVC015=

USA.gov is the U.S. government's official web portal to all federal, state and local government web resources and services.